Aérodrome :
LOGIN :

S'inscrire | Disclaimer

   EN    FR    IT 

 










Légende :    VFR   VFR Marginal   IFR   IFR Intensif   IFR Très Intensif
Visi : 
Plafond : 
>= 8 km
>= 3000ft
5 à 8 km
1000 à 3000 ft
1500m à 5 km
500 à 1000 ft
800 à 1500m
200 à 500 ft
< 800m
< 200 ft
Symboles :   Orages  Brouillard  Fortes neiges  Fortes précipitations  Vent > 20 kt
SIGMETs :   Divers  Orages  Givrage  Turbulence  Onde Orograph.  Cendres Volcan.






- Altitude de l'aérodrome : 538 ft
- Code IATA : TNF


LFPN - Toussus Le Noble

DERNIER METAR :
  • 131000Z AUTO 05008KT 010V130 CAVOK 23/08 Q1024 NOSIG

METARs EXPIRÉS :
  • 130930Z AUTO 36009KT 320V040 CAVOK 23/08 Q1024 NOSIG
  • 130900Z AUTO 02009KT 350V060 CAVOK 21/08 Q1024 NOSIG
  • 130830Z AUTO 01009KT 340V060 CAVOK 21/08 Q1024 NOSIG
  • 130800Z AUTO 36007KT 330V040 CAVOK 20/09 Q1024 NOSIG
  • 130730Z AUTO 01005KT 320V060 CAVOK 19/09 Q1024 NOSIG

TAF TAF LFPN
Valide du 13 à 09h jusqu'au 13 à 18h UTC


130800Z 1309/1318 36006KT CAVOK
ATIS : +33 1 39 56 54 70



MET'MAP, la Météo Aéronautique d'un coup d'oeil ! - Copyright ORBIFLY Décembre 2007 - Disclaimer

ORBIFLY MET'MAP TEAM :

Programmation & Développement : Alexandra Zaïnal
Sur une idée originale de : Baudouin d'Aumeries
Assistance à la programmation : Marc-Olivier Méhu
Soutien technique & logistique : Manuel Goepfert

Contact : metmap@orbifly.com




SOURCES & CREDITS :

   NOAA